Location: Newark
(44.3867°N, 6.6531°E)
Time: 20:24:12
(UTC+00:00)

Envisat - Pass Details

Date: 31 January 2020
Orbit: 764 x 766 km, 98.1° (Epoch: 22 February)

Event Time Altitude Azimuth Distance (km) Brightness Sun altitude
Rises 05:48:30 0° 18° (NNE) 3,242 6.3 -11.8°
Reaches altitude 10° 05:50:54 10° 25° (NNE) 2,311 5.6 -11.4°
Maximum altitude 05:55:48 46° 99° (E) 1,020 4.2 -10.6°
Drops below altitude 10° 06:00:39 10° 172° (S) 2,294 5.8 -9.7°
Sets 06:03:02 0° 178° (S) 3,215 6.5 -9.3°
